Time,TemperatureF,DewpointF,PressureIn,WindDirection,WindDirectionDegrees,WindSpeedMPH,WindSpeedGustMPH,Humidity,HourlyPrecipIn,Conditions,Clouds,dailyrainin,SoftwareType,DateUTC
2013-09-20 00:03:00,72.0,71.0,29.87,NNW,338,1.0,7.0,97,0.04,,,-99.99,,2013-09-20 05:03:00,
2013-09-20 00:23:00,72.0,71.0,29.87,NNE,15,4.0,4.0,97,0.00,,,-99.99,,2013-09-20 05:23:00,
2013-09-20 00:53:00,72.0,71.0,29.88,NE,56,0.0,4.0,97,0.23,,,-99.99,,2013-09-20 05:53:00,
2013-09-20 01:22:00,72.0,71.0,29.87,NW,323,3.0,3.0,97,0.33,,,-99.99,,2013-09-20 06:22:00,
2013-09-20 01:52:00,72.0,71.0,29.86,NNE,33,3.0,4.0,98,1.57,,,-99.99,,2013-09-20 06:52:00,
2013-09-20 02:11:00,72.0,71.0,29.86,NNE,20,0.0,6.0,98,0.25,,,-99.99,,2013-09-20 07:11:00,
2013-09-20 02:22:00,72.0,71.0,29.86,NNE,20,0.0,6.0,98,0.25,,,-99.99,,2013-09-20 07:22:00,
2013-09-20 02:53:00,71.0,70.0,29.85,ENE,57,2.0,6.0,98,0.12,,,-99.99,,2013-09-20 07:53:00,
2013-09-20 03:22:00,72.0,71.0,29.85,ESE,121,0.0,3.0,98,0.00,,,-99.99,,2013-09-20 08:22:00,
2013-09-20 03:52:00,72.0,71.0,29.85,SW,217,0.0,1.0,98,0.09,,,-99.99,,2013-09-20 08:52:00,
2013-09-20 04:01:00,72.0,71.0,29.85,SW,217,0.0,1.0,98,0.09,,,-99.99,,2013-09-20 09:01:00,
2013-09-20 04:22:00,72.0,71.0,29.85,SW,217,0.0,0.0,98,0.10,,,-99.99,,2013-09-20 09:22:00,
2013-09-20 04:53:00,72.0,71.0,29.84,East,90,0.0,3.0,98,0.00,,,-99.99,,2013-09-20 09:53:00,
2013-09-20 05:23:00,72.0,71.0,29.83,North,4,0.0,1.0,98,0.00,,,-99.99,,2013-09-20 10:23:00,
2013-09-20 05:32:00,72.0,71.0,29.83,North,4,0.0,1.0,98,0.00,,,-99.99,,2013-09-20 10:32:00,
2013-09-20 05:53:00,71.0,70.0,29.82,ESE,110,0.0,0.0,98,0.00,,,-99.99,,2013-09-20 10:53:00,
2013-09-20 06:23:00,71.0,70.0,29.81,SE,139,0.0,2.0,98,0.00,,,-99.99,,2013-09-20 11:23:00,
2013-09-20 06:52:00,71.0,70.0,29.81,WNW,303,1.0,1.0,98,0.00,,,-99.99,,2013-09-20 11:52:00,
2013-09-20 07:22:00,71.0,70.0,29.81,NW,304,0.0,0.0,98,0.00,,,-99.99,,2013-09-20 12:22:00,
2013-09-20 07:52:00,71.0,70.0,29.83,North,1,0.0,1.0,98,0.00,,,-99.99,,2013-09-20 12:52:00,
2013-09-20 08:21:00,71.0,70.0,29.84,North,4,2.0,4.0,98,0.00,,,-99.99,,2013-09-20 13:21:00,
2013-09-20 08:52:00,72.0,71.0,29.85,NW,323,2.0,5.0,98,0.00,,,-99.99,,2013-09-20 13:52:00,
2013-09-20 09:02:00,72.0,71.0,29.85,NW,323,2.0,5.0,98,0.00,,,-99.99,,2013-09-20 14:02:00,
2013-09-20 09:21:00,72.0,71.0,29.85,NNW,337,4.0,7.0,98,0.00,,,-99.99,,2013-09-20 14:21:00,
2013-09-20 09:52:00,72.0,71.0,29.84,North,11,6.0,7.0,97,0.00,,,-99.99,,2013-09-20 14:52:00,
2013-09-20 10:22:00,73.0,72.0,29.85,NNE,16,7.0,7.0,97,0.00,,,-99.99,,2013-09-20 15:22:00,
2013-09-20 10:54:00,73.0,71.0,29.85,NNE,27,5.0,10.0,94,0.00,,,-99.99,,2013-09-20 15:54:00,
2013-09-20 11:23:00,72.0,69.0,29.85,North,359,11.0,18.0,91,0.00,,,-99.99,,2013-09-20 16:23:00,
2013-09-20 11:52:00,72.0,69.0,29.84,NNE,30,5.0,16.0,91,0.00,,,-99.99,,2013-09-20 16:52:00,
2013-09-20 12:23:00,72.0,69.0,29.83,NNW,342,10.0,17.0,91,0.00,,,-99.99,,2013-09-20 17:23:00,
2013-09-20 12:34:00,72.0,69.0,29.83,NNW,342,10.0,17.0,91,0.00,,,-99.99,,2013-09-20 17:34:00,
2013-09-20 12:53:00,68.0,67.0,29.85,WNW,302,5.0,20.0,96,1.12,,,-99.99,,2013-09-20 17:53:00,
2013-09-20 13:22:00,68.0,67.0,29.87,NNE,15,6.0,169.0,97,0.10,,,-99.99,,2013-09-20 18:22:00,
2013-09-20 13:52:00,67.0,66.0,29.88,ENE,65,8.0,13.0,98,0.32,,,-99.99,,2013-09-20 18:52:00,
2013-09-20 14:11:00,68.0,67.0,29.88,NE,40,6.0,12.0,98,0.24,,,-99.99,,2013-09-20 19:11:00,
2013-09-20 14:22:00,68.0,67.0,29.88,NE,40,6.0,12.0,98,0.24,,,-99.99,,2013-09-20 19:22:00,
2013-09-20 14:53:00,67.0,66.0,29.87,NE,39,6.0,14.0,97,0.00,,,-99.99,,2013-09-20 19:53:00,
2013-09-20 15:03:00,67.0,66.0,29.87,NE,39,6.0,14.0,97,0.00,,,-99.99,,2013-09-20 20:03:00,
2013-09-20 15:22:00,68.0,67.0,29.85,NNE,12,8.0,15.0,96,0.00,,,-99.99,,2013-09-20 20:22:00,
2013-09-20 15:52:00,68.0,67.0,29.86,NNW,348,5.0,14.0,96,0.04,,,-99.99,,2013-09-20 20:52:00,
2013-09-20 16:21:00,68.0,67.0,29.86,North,353,9.0,13.0,95,0.00,,,-99.99,,2013-09-20 21:21:00,
2013-09-20 16:54:00,69.0,68.0,29.88,NNE,20,4.0,8.0,96,0.00,,,-99.99,,2013-09-20 21:54:00,
2013-09-20 17:23:00,69.0,68.0,29.87,NNE,15,5.0,13.0,96,0.07,,,-99.99,,2013-09-20 22:23:00,
2013-09-20 17:33:00,69.0,68.0,29.87,NNE,15,5.0,13.0,96,0.07,,,-99.99,,2013-09-20 22:33:00,
2013-09-20 17:53:00,69.0,68.0,29.85,NE,36,3.0,10.0,96,0.00,,,-99.99,,2013-09-20 22:53:00,
2013-09-20 18:22:00,69.0,68.0,29.85,NE,40,5.0,10.0,96,0.00,,,-99.99,,2013-09-20 23:22:00,
2013-09-20 18:53:00,69.0,68.0,29.85,NNE,30,6.0,9.0,96,0.00,,,-99.99,,2013-09-20 23:53:00,
2013-09-20 19:21:00,69.0,68.0,29.86,NE,50,9.0,10.0,95,0.00,,,-99.99,,2013-09-21 00:21:00,
2013-09-20 19:52:00,69.0,68.0,29.86,ENE,72,3.0,6.0,95,0.00,,,-99.99,,2013-09-21 00:52:00,
2013-09-20 20:02:00,69.0,68.0,29.86,ENE,72,3.0,6.0,95,0.00,,,-99.99,,2013-09-21 01:02:00,
2013-09-20 20:22:00,69.0,68.0,29.88,North,8,2.0,3.0,96,0.00,,,-99.99,,2013-09-21 01:22:00,
2013-09-20 20:52:00,69.0,68.0,29.88,NNW,336,2.0,4.0,97,0.00,,,-99.99,,2013-09-21 01:52:00,
2013-09-20 21:22:00,69.0,68.0,29.90,NNW,333,3.0,4.0,97,0.00,,,-99.99,,2013-09-21 02:22:00,
2013-09-20 21:52:00,69.0,68.0,29.91,NNE,23,4.0,4.0,96,0.00,,,-99.99,,2013-09-21 02:52:00,
2013-09-20 22:02:00,69.0,68.0,29.91,NNE,23,4.0,4.0,96,0.00,,,-99.99,,2013-09-21 03:02:00,
2013-09-20 22:22:00,69.0,68.0,29.92,NE,50,3.0,11.0,95,0.00,,,-99.99,,2013-09-21 03:22:00,
2013-09-20 22:54:00,69.0,68.0,29.92,ENE,71,4.0,12.0,95,0.00,,,-99.99,,2013-09-21 03:54:00,
2013-09-20 23:24:00,68.0,67.0,29.92,NE,53,6.0,9.0,95,0.00,,,-99.99,,2013-09-21 04:24:00,
2013-09-20 23:54:00,68.0,67.0,29.93,North,352,4.0,8.0,95,0.00,,,-99.99,,2013-09-21 04:54:00,